Location: Unspecified
(0.0000°N, 0.0000°E)
Time: 20:52:53
(UTC+02:00)

Daily predictions for brighter satellites

Satellite Brightness Start Highest point End
(mag) Time Altitude Azimuth Time Altitude Azimuth Time Altitude Azimuth
ARIANE 5 R/B 4.2 19:29:21 10° W 19:33:12 78° S 20:01:40 10° E
ARIANE 5 R/B 4.2 19:29:21 10° W 19:33:13 78° S 20:01:40 10° E
ARIANE 5 R/B 4.2 19:29:22 10° W 19:33:13 78° S 20:01:40 10° E
ARIANE 5 R/B 4.2 19:29:21 10° W 19:33:13 78° S 20:01:41 10° E
ISO 4.2 19:39:17 10° WNW 19:43:37 69° N 20:27:28 10° E
Okean 1 4.3 20:16:08 10° SSE 20:19:35 26° E 20:22:59 10° NE
Sakura Rocket 4.1 20:16:38 10° NNW 20:19:42 25° NNE 20:23:01 10° E
SMAP 4.2 20:16:37 10° S 20:21:06 48° WSW 20:25:34 10° NNW
BLOCK DM-SL R/B 1.7 20:19:41 10° W 20:22:17 83° S 20:25:44 10° E
Cosmos 158 Rocket 4.5 20:18:45 10° SSE 20:23:08 33° ESE 20:27:35 10° NE
Lacrosse 5 rocket 4.3 20:21:24 10° WSW 20:23:54 17° WNW 20:26:25 10° NNW
ISS -2.1 20:25:32 10° S 20:28:12 23° SE 20:30:51 10° ENE
Cosmos 2333 Rocket 2.6 20:23:02 10° SSW 20:28:41 72° WNW 20:34:17 10° N
Cosmos 1400 Rocket 4.2 20:31:51 10° NE 20:34:40 19° E 20:37:13 11° SE
H-2A R/B 4.2 19:48:20 10° SW 20:35:00 42° SSE 20:41:26 12° E
GPS 2-12 Rocket1 3.8 20:30:44 10° NW 20:35:22 46° NNE 20:39:43 11° E
Helios 1A 3.7 20:31:46 10° SE 20:35:32 33° ENE 20:39:19 10° NNE
Cosmos 2251 Rocket 4.0 20:31:30 10° S 20:36:22 39° ESE 20:41:15 10° NE
Cosmos 1802 Rocket 4.4 20:32:12 10° NNE 20:37:51 39° E 20:43:33 10° SSE
Cosmos 1536 2.8 20:34:25 10° N 20:38:27 77° E 20:42:29 10° S
Delta 198 3.2 20:35:14 10° SW 20:39:18 60° SSE 20:42:56 10° ENE
Ariane H10 2.7 20:40:45 10° WNW 20:43:06 38° N 20:48:27 10° ENE
Spot 2 Rocket 4.1 20:38:51 10° SE 20:43:27 35° ENE 20:47:59 10° NNE
GPS 2-18 Rocket1 3.7 20:42:21 10° SW 20:45:51 36° SSE 20:48:07 18° E
Cosmos 2263 Rocket 2.2 20:40:38 10° NNW 20:46:15 87° ENE 20:51:51 10° SSE
ARIANE R/B 4.4 20:43:36 10° WNW 20:46:56 34° N 20:51:30 10° ENE
MSX 3.8 20:43:42 10° SSE 20:49:27 78° ENE 20:55:10 10° N
SJ-6B 2.6 20:45:59 10° SSE 20:49:43 77° ENE 20:53:26 10° N
ARIANE 5 R/B 2.9 20:49:26 10° W 20:52:04 63° S 20:58:45 16° E
CZ-2C R/B 4.1 20:51:01 10° SSW 20:55:45 37° WSW 21:00:27 10° NW
Cosmos 1242 Rocket 2.9 20:53:14 10° S 20:56:54 70° W 21:00:34 10° N
Cosmos 1455 Rocket 3.0 20:53:52 10° N 20:58:15 66° E 21:02:39 10° SSE
Cosmos 1844 Rocket 4.3 20:56:41 10° NE 20:59:47 15° ENE 21:00:02 15° ENE
Cosmos 2056 Rocket 3.7 20:57:04 10° NNW 21:02:11 72° WSW 21:07:15 10° S
NOAA 12 4.1 20:57:47 10° SSE 21:02:58 62° ENE 21:08:07 10° N
Cosmos 2237 Rocket 4.1 21:00:56 10° SW 21:05:50 31° WNW 21:10:44 10° NNW
FREGAT/IRIS 2.6 21:05:52 21° S 21:07:52 90° SE 21:11:01 10° N
Cosmos 1633 4.0 21:09:34 10° NNW 21:12:56 37° W 21:16:20 10° SSW
NOSS 3-4 (A) 4.0 21:06:36 10° NNW 21:14:05 82° WSW 21:21:01 14° SSE
NOSS 3-4 (C) 4.0 21:06:41 10° NNW 21:14:11 83° WSW 21:21:03 14° SSE
SL-24 R/B 4.0 21:10:33 12° S 21:14:31 88° WSW 21:18:43 10° NNW
Cosmos 2084 Rocket 4.0 21:17:56 10° N 21:22:02 41° ENE 21:22:17 40° ENE
SWIFT 4.2 21:20:55 10° WSW 21:23:55 18° SSW 21:24:38 17° S
ERBS 4.0 21:21:16 10° N 21:23:14 23° NNE 21:23:14 23° NNE
Resurs 01 Rocket 1.8 21:21:07 16° S 21:24:35 69° WSW 21:28:59 10° NNW
deb Olympus 4.2 21:22:19 10° W 21:25:49 65° N 21:33:45 19° ENE
Cosmos 1725 Rocket 4.0 21:20:16 10° N 21:26:22 59° E 21:29:25 30° SSE
Cosmos 494 Rocket 3.9 21:22:28 10° SSW 21:27:37 89° WNW 21:32:43 10° NNE
Cosmos 1975 3.5 21:27:26 10° N 21:30:17 40° NE 21:30:17 40° NE
Cosmos 44 3.2 21:26:34 10° NNW 21:31:28 79° WSW 21:32:53 45° S
SL-16 R/B 3.2 21:27:15 10° SSW 21:32:40 48° WNW 21:38:04 10° N
CZ-4B DEB 3.4 21:33:55 53° NNW 21:33:55 53° NNW 21:36:33 10° NNW
OAO 2 Rocket 3.6 21:29:24 10° NW 21:34:36 55° NE 21:35:24 50° ENE
Cosmos 2278 Rocket 4.3 21:32:57 10° NE 21:33:31 11° NE 21:33:31 11° NE
Cosmos 1356 4.3 21:34:22 10° NNW 21:37:48 49° W 21:38:16 45° WSW
Cosmos 2016 Rocket 4.4 21:31:46 10° NNW 21:37:52 61° W 21:43:57 10° S
Resurs 1-3 3.8 21:36:35 37° S 21:38:12 67° WSW 21:42:31 10° NNW
Cosmos 1025 Rocket 3.5 21:36:27 13° SSW 21:40:16 61° W 21:44:36 10° N
Cosmos 1864 Rocket 4.4 21:36:13 10° N 21:42:33 85° E 21:45:36 33° S
Cosmos 1892 Rocket 3.6 21:43:51 71° N 21:43:51 71° N 21:47:47 10° N
GPS 2-17 Rocket1 4.2 21:40:30 10° W 21:44:39 37° NNW 21:45:55 30° NNE
Meteor 1-23 Rocket 4.0 21:44:46 56° SSE 21:45:56 74° E 21:51:31 10° N
Nimbus 7 Rocket 4.4 21:42:04 10° NNE 21:47:11 56° ENE 21:47:11 56° ENE
RESURS DK-1 3.6 21:44:08 10° N 21:46:32 33° N 21:46:32 33° N
ARIANE 5 R/B 2.5 21:49:53 10° WNW 21:53:05 60° NNE 21:54:31 48° ENE
Aureole 2 Rocket 3.5 21:53:45 55° NW 21:53:45 55° NW 21:57:27 10° N
Cosmos 1315 Rocket 4.0 21:52:50 10° NNW 21:56:31 40° W 21:56:31 40° W
FengYun 1-2 T 4.3 21:57:34 57° SSW 21:58:37 71° WSW 22:04:05 10° NNW
Cosmos 1603 3.7 21:55:48 10° SSW 22:01:54 76° N 22:07:06 10° NNE
ISS 0.3 22:04:01 10° WNW 22:04:26 10° NW 22:04:51 10° NW
Ariane 42L R/B 4.5 22:00:05 10° WSW 22:05:02 25° SW 22:05:02 25° SW
ALOS 3.9 22:10:31 26° N 22:10:31 26° N 22:12:35 10° N
Meteor 2-4 Rocket 4.2 22:06:49 39° SW 22:08:45 60° W 22:14:26 10° N
Cosmos 2233 Rocket 4.0 22:02:46 10° N 22:08:13 71° N 22:08:13 71° N
Ariane H10 4.5 21:01:37 10° W 22:14:58 67° S 22:17:36 55° SE
Delta 2 Rocket 4.4 22:12:37 10° WNW 22:20:12 63° SW 22:20:12 63° SW
ARIANE 5 R/B 4.2 22:17:44 10° W 22:29:25 49° WSW 22:29:25 49° WSW
Cosmos 1844 Rocket 4.3 22:38:18 10° NW 22:41:45 30° WNW 22:41:45 30° WNW
ATLAS 3B CENTAUR R/B 3.8 22:39:40 10° NW 22:44:46 52° NNE 22:44:46 52° NNE
